Location: Kings Park
(40.8862°N, 73.2573°W)
Time: 09:06:14
(UTC+00:00)

OAO 2 Rocket - Pass Details

Date: 29 October 2020
Orbit: 676 x 746 km, 35.0° (Epoch: 23 November)

Event Time Altitude Azimuth Distance (km) Brightness Sun altitude
Rises 23:38:45 0° 260° (W) 3,060 8.1 -20.7°
Reaches altitude 10° 23:41:16 10° 254° (WSW) 2,133 6.9 -21.1°
Maximum altitude 23:45:57 42° 184° (S) 969 4.0 -22.0°
Enters shadow 23:46:58 37° 153° (SSE) 1,052 4.0 -22.2°
